Weather in Poselok Kurort-Darasun

Russia / Zabaykalsky Krai     51°11′52″N   113°43′19″E
temp.,
°C
wind,
m/s
gust,
m/s
humid.,
%
clouds,
%
prec.,
mm/h
press.,
hPa
HPBL,
m
12 may, wed
wed1200:00+5nw411578 0.0 1007289
03:00+2w412760 0.0 1008270
06:00+1wnw413750 0.0 1009370
09:00+7wnw69470 0.0 1008679
12:00+12wnw710315 0.0 10052334
15:00+13nw7926100 0.0 10043002
18:00+13wnw793097 0.0 10032715
21:00+8w49472 0.0 1005232
13 may, thu
thu1300:00+4wsw26693 0.0 1008109
03:00+3w511831 0.0 1009428
06:00+2wnw41272100 0.0 1010593
09:00+5wnw6946100 0.0 10091133
12:00+8wnw6932100 0.0 10081656
15:00+7wnw6830100 0.0 10071719
18:00+11wnw682399 0.0 10042858
21:00+5wnw510335 0.0 1007420
14 may, fri
fri1400:00+1w512510 0.0 1009445
03:000w512530 0.0 1010605
06:00−1wnw7147993 0.0 1010612
09:00+4nw7117697 0.1 10101147
12:00+8nw6941100 0.1 10092034
15:00+11nw6932100 0.1 10082884
18:00+11nnw6103399 0.0 10072379
21:00+7wsw2249100 0.1 101029
15 may, sat
sat1500:00+4w226398 0.1 101229
03:00+2w24570 0.1 101453
06:000w23530 0.0 101540
09:00+8wnw46330 0.0 1014527
12:00+13wnw56210 0.0 10121611
15:00+17wnw57155 0.0 10092400
18:00+17wnw681530 0.0 10082920
21:00+10w22308 0.0 100912
16 may, sun
sun1600:00+8w5134168 0.0 1011399
03:00+6wnw613540 0.0 1013826
06:00+4wnw715565 0.0 10141003
09:00+8wnw916465 0.0 10131377
12:00+13nw914375 0.0 10101794
15:00+16nw10143331 0.0 10092032
18:00+16nw916405 0.0 10091965
21:00+12wnw613515 0.0 1011969